コマス・ソラ彗星

32P/Comas Sola (1996)

English version
Home page
Updated on July 18, 1997

---------------------------------------------------------------------

・ プロフィール

・ 軌道要素

   The following improved orbital elements, by Kenji Muraoka, are from 
  178 observations  1968 to 1997, including 9 Planets, Moon and 5 minor 
  planets perturbations and non-gravitational effect of style II.  
   The mean residual is  +/- 0.97 arc seconds.

      Epoch  =  1996 June  6.0  TT       JDT = 2450240.5
          T  =  1996 June 10.47594       +/- 0.00132 (m.e.) TT
       Peri. =   45.76303                +/- 0.00038
       Node  =   60.87253                +/- 0.00018   (2000.0)
       Incl. =   12.91634                +/- 0.00004
          q  =    1.8463610              +/- 0.0000025 AU
          e  =    0.5677912              +/- 0.0000006
          a  =    4.2719188              +/- 0.0000020 AU
          n  =    0.11162709             +/- 0.00000008
          P  =    8.829                  +/- 0.0000061  years
         A1  =   +0.971                  +/- 0.059
         A2  =   -0.11277                +/- 0.00108

・ 星図

・ 1995年 8月 1日〜1996年 7月26日
・ 1996年 7月26日〜1997年 5月22日

・ 光度変化

        m1 = 5.3 + 5 logΔ + 22.5 log r  [   ,290]  (              〜1997年 3月27日)
        m1 = 3.5 + 5 logΔ + 22.5 log r  [290,   ]  (1997年 3月27日〜              )

---------------------------------------------------------------------

軌道要素は村岡健治氏の計算によるものです。
星図は StellaNavigator Ver.2.0 for Windows (アストロアーツ 編著 / アスキー出版局刊) で作成したものです。
光度グラフはComet for Windowsで作成したものです。

---------------------------------------------------------------------

Copyright(C) Seiichi Yoshida (comet@aerith.net). All rights reserved.